104  
ASUS45 KPSR 271710  
RWRAZ  
 
ARIZONA HOURLY REGIONAL WEATHER ROUNDUP  
NATIONAL WEATHER SERVICE PHOENIX AZ  
1000 AM MST SAT MAY 27 2017  
 
NOTE: FAIR INDICATES FEW OR NO CLOUDS BELOW 12,000 FEET WITH NO  
SIGNIFICANT WEATHER AND/OR S TO VISIBILITY
.  
 
AZZ001>003-036-271800-  
NORTHWEST ARIZONA  
 
CITY SKY/WX TMP DP RH WIND PRES REMARKS
 
BULLHEAD CITY SUNNY 84 41 21 SW6 29.92F  
KINGMAN SUNNY 78 35 21 W6 30.05R  

 
 
AZZ004>008-015-016-018-271800-  
NORTH CENTRAL ARIZONA  
 
CITY SKY/WX TMP DP RH WIND PRES REMARKS
 
GRAND CANYON SUNNY 65 26 23 NW6 30.20S  
WILLIAMS SUNNY 64 23 20 W10G18 30.21R  
PRESCOTT SUNNY 72 31 22 SE6 30.13S  
FLAGSTAFF SUNNY 64 21 19 W8 30.22R  
PAYSON SUNNY 72 27 18 SW5G13 30.17S  
PAGE SUNNY 71 33 24 VRB3 30.08S  

 
 
AZZ009>014-017-271800-  
NORTHEAST ARIZONA  
 
CITY SKY/WX TMP DP RH WIND PRES REMARKS
 
WINSLOW SUNNY 75 23 14 NW7 30.11S  
SAINT JOHNS SUNNY 72 23 16 NW10 30.14F  
WINDOW ROCK SUNNY 68 23 18 W13 30.17S  
SHOW LOW SUNNY 64 19 17 SW9 30.21R  

 
 
AZZ540-542>544-546-548-271800-  
GREATER PHOENIX AREA  
 
CITY SKY/WX TMP DP RH WIND PRES REMARKS
 
PHOENIX SUNNY 83 26 12 SE7 29.95R  
BUCKEYE SUNNY 82 28 14 S5 29.96S  
GLENDALE SUNNY 84 27 12 CALM N/A  
LUKE AFB SUNNY 84 29 13 NE3 29.95S  
DEER VALLEY SUNNY 82 19 9 S7 29.97S  
SCOTTSDALE SUNNY 82 21 10 VRB6 29.98S  
MESA-FALCON SUNNY 86 23 10 SE7 29.97S  
MESA-GATEWAY SUNNY 82 21 10 SE10G17 29.98  
CHANDLER SUNNY 82 23 11 SE6 29.96S  

 
 
AZZ539-553-271800-  
SOUTHWEST MARICOPA COUNTY AND PINAL COUNTY  
 
CITY SKY/WX TMP DP RH WIND PRES REMARKS
 
CASA GRANDE SUNNY 81 28 14 VRB3 29.98S  
GILA BEND FAIR 84 26 12 CALM 29.93S  

 
 
AZZ503-504-507>509-271800-  
SOUTHEAST ARIZONA  
 
CITY SKY/WX TMP DP RH WIND PRES REMARKS
 
TUCSON SUNNY 83 23 11 CALM 30.03F  
DAVIS-MONTHAN SUNNY 82 18 9 CALM 30.02F  
NOGALES SUNNY 82 20 10 VRB7 30.08S  
SIERRA VISTA SUNNY 77 19 11 NE5 30.13S  
DOUGLAS SUNNY 79 31 17 S9 30.09F  
SAFFORD SUNNY 81 22 11 SE5 30.04S  

 
 
AZZ532-271800-  
SOUTHWEST ARIZONA  
 
CITY SKY/WX TMP DP RH WIND PRES REMARKS
 
YUMA SUNNY 80 51 36 S8 29.93R  

 
 
CAZ041-043-047-048-061-525>527-560>570-271800-  
SOUTHERN CALIFORNIA  
 
CITY SKY/WX TMP DP RH WIND PRES REMARKS
 
DOWNTOWN L.A. CLOUDY 67 52 58 VRB3 30.06S  
L.A. AIRPORT MOSUNNY 64 53 67 W9 30.07S  
SAN DIEGO PTSUNNY 67 55 65 NW12 30.08R  
BURBANK MOSUNNY 64 48 56 S7 30.06R  
ONTARIO PTSUNNY 65 49 56 VRB7 30.06S  
RIVERSIDE PTSUNNY 63 51 65 CALM 30.06S  
PALM SPRINGS SUNNY 81 45 28 VRB5 29.94S  
EL CENTRO NAS SUNNY 79 47 32 NE7 29.93S  
IMPERIAL SUNNY 79 51 37 NE6 29.91R  
BLYTHE SUNNY 81 43 26 SW5 29.93R  
NEEDLES SUNNY 86 40 19 CALM 29.93S  

 
 
NVZ020-UTZ003-271800-  
SOUTHERN NEVADA-UTAH  
 
CITY SKY/WX TMP DP RH WIND PRES REMARKS
 
LAS VEGAS SUNNY 82 27 13 N10 29.99R  
SALT LAKE CITY MOSUNNY 60 37 42 W7 30.22R  

 
 
NMZ009-TXZ055-271800-  
NEW MEXICO-WEST TEXAS  
 
CITY SKY/WX TMP DP RH WIND PRES REMARKS
 
ALBUQUERQUE MOSUNNY 73 17 12 W14 30.10S  
EL PASO MOSUNNY 84 33 16 W13G25 30.05F  

 
 
   
.......................KEY.....................
 
 
SKY/WX - SKY CONDITION/WEATHER  
TMP - TEMPERATURE IN FAHRENHEIT  
DP - DEW POINT IN FAHRENHEIT  
RH - RELATIVE HUMIDITY IN PERCENT  
WIND - DIRECTION AND SPEED IN MILES PER HOUR (MPH)  
VRB - VARIABLE WIND DIRECTION  
PRES - MEAN SEA LEVEL PRESSURE IN INCHES OF MERCURY  
F - FALLING PRESSURE R - RISING PRESSURE  
S - STEADY PRESSURE  
VSB - VISIBILITY IN MILES  
HX - HEAT INDEX IN FAHRENHEIT  
WCI - WIND CHILL INDEX IN FAHRENHEIT  
TC - TEMPERATURE IN CELSIUS WHICH IS ALSO KNOWN AS  
TEMPERATURE IN CENTIGRADE  
AFB - AIR FORCE BASE  
LUKE AFB IS LUKE AIR FORCE BASE  
DAVIS-MONTHAN IS DAVIS-MONTHAN AIR FORCE BASE  
NAS - NAVAL AIR STATION  
EL CENTRO NAS IS EL CENTRO NAVAL AIR STATION  
N/A - NOT AVAILABLE  
 
 
 
CLICK HERE TO GO TO PREVIOUS BULLETINS.

The Nexlab AZ Page Main Text Page